sat.trackr.live / text

‹ back to catalog

FLOCK 4Q-16

NORAD 58271 · 2023-174R

PAYLOAD ACTIVE UNKNOWN

§ Identity

Operator
Country
US
Launch date
2023-11-11
Launch site
AFWTR
Launch vehicle
Mass (kg)
RCS (m²)

Purposes: earth_obs

External: N2YO · Heavens-Above · Gunter

§ Orbital elements

Epoch: 2026-09-18T04:37:58.752768Z

Period
92.72 min
Inclination
97.3757°
Eccentricity
0.0006208
Mean motion
15.53135874 rev/d
Perigee alt
403.4 km
Apogee alt
411.8 km
Semi-major
6,785.7 km
B*
3.5378e-4
RAAN
351.6752°
Arg perigee
182.8213°
Mean anomaly
177.3006°
Rev number
15,999

§ Raw data

FLOCK 4Q-161 58271U 23174R   26261.19304112  .00022114  00000+0  35378-3 0  99962 58271  97.3757 351.6752 0006208 182.8213 177.3006 15.53135874159992

JSON: /api/v1/satellites/58271 · /tle

For live sub-satellite position, see the globe view (requires WebGL).

§ Visibility from observer

Set your observer location to see the next 7 days of passes ≥ 10°. The values pass through the URL so the page stays shareable.

No JS? Fill the form by hand. The geolocation button needs JavaScript.